Terminal Aerodrome Forecast
Issued by NWS North Platte, NE

Home | Current Version | Previous Version | Text Only | Print | Product List | Glossary On
Versions: 1 2 3 4 5 6 7 8 9 10 11 12 13
000
FTUS43 KLBF 292300
TAFLBF
TAF
KLBF 292323Z 3000/3024 11011KT P6SM SCT050 BKN070 OVC090
     FM301400 11006KT P6SM SCT090 BKN200=

USA.gov is the U.S. government's official web portal to all federal, state and local government web resources and services.